TimeCDT,TemperatureF,Dew PointF,Humidity,Sea Level PressureIn,VisibilityMPH,Wind Direction,Wind SpeedMPH,Gust SpeedMPH,PrecipitationIn,Events,Conditions,WindDirDegrees,DateUTC
12:15 AM,60.8,46.4,59,29.99,10.0,Calm,Calm,-,N/A,,Clear,0,2013-05-08 05:15:00
12:35 AM,59.0,46.4,63,29.99,10.0,Calm,Calm,-,N/A,,Clear,0,2013-05-08 05:35:00
12:55 AM,59.0,46.4,63,29.99,10.0,Calm,Calm,-,N/A,,Clear,0,2013-05-08 05:55:00
1:15 AM,59.0,46.4,63,29.99,10.0,Calm,Calm,-,N/A,,Clear,0,2013-05-08 06:15:00
1:35 AM,57.2,46.4,67,29.99,10.0,Calm,Calm,-,N/A,,Clear,0,2013-05-08 06:35:00
1:55 AM,57.2,46.4,67,29.99,10.0,Calm,Calm,-,N/A,,Clear,0,2013-05-08 06:55:00
2:15 AM,57.2,46.4,67,29.99,10.0,Calm,Calm,-,N/A,,Clear,0,2013-05-08 07:15:00
2:35 AM,57.2,46.4,67,29.99,10.0,Calm,Calm,-,N/A,,Clear,0,2013-05-08 07:35:00
2:55 AM,57.2,46.4,67,29.99,10.0,Calm,Calm,-,N/A,,Clear,0,2013-05-08 07:55:00
3:15 AM,53.6,46.4,77,29.99,10.0,Calm,Calm,-,N/A,,Clear,0,2013-05-08 08:15:00
3:35 AM,55.4,46.4,72,29.99,10.0,Calm,Calm,-,N/A,,Clear,0,2013-05-08 08:35:00
3:55 AM,55.4,46.4,72,29.99,10.0,Calm,Calm,-,N/A,,Clear,0,2013-05-08 08:55:00
4:15 AM,53.6,44.6,72,30.00,10.0,Calm,Calm,-,N/A,,Clear,0,2013-05-08 09:15:00
4:35 AM,53.6,44.6,72,30.00,10.0,Calm,Calm,-,N/A,,Scattered Clouds,0,2013-05-08 09:35:00
4:55 AM,55.4,46.4,72,30.00,10.0,Calm,Calm,-,N/A,,Mostly Cloudy,0,2013-05-08 09:55:00
5:15 AM,55.4,46.4,72,30.00,10.0,Calm,Calm,-,N/A,,Scattered Clouds,0,2013-05-08 10:15:00
5:35 AM,53.6,46.4,77,30.01,10.0,Calm,Calm,-,N/A,,Clear,0,2013-05-08 10:35:00
5:55 AM,53.6,44.6,72,30.01,10.0,Calm,Calm,-,N/A,,Clear,0,2013-05-08 10:55:00
6:15 AM,53.6,44.6,72,30.01,7.0,Calm,Calm,-,N/A,,Clear,0,2013-05-08 11:15:00
6:35 AM,53.6,44.6,72,30.02,10.0,Calm,Calm,-,N/A,,Clear,0,2013-05-08 11:35:00
6:55 AM,55.4,46.4,72,30.02,10.0,Calm,Calm,-,N/A,,Clear,0,2013-05-08 11:55:00
7:15 AM,57.2,50.0,77,30.02,7.0,Calm,Calm,-,N/A,,Clear,0,2013-05-08 12:15:00
7:35 AM,60.8,51.8,72,30.02,10.0,Calm,Calm,-,N/A,,Clear,0,2013-05-08 12:35:00
7:55 AM,64.4,51.8,64,30.03,10.0,Calm,Calm,-,N/A,,Clear,0,2013-05-08 12:55:00
8:15 AM,66.2,53.6,64,30.03,10.0,Calm,Calm,-,N/A,,Clear,0,2013-05-08 13:15:00
8:35 AM,69.8,51.8,53,30.03,10.0,Calm,Calm,-,N/A,,Clear,0,2013-05-08 13:35:00
8:55 AM,69.8,53.6,56,30.03,10.0,Calm,Calm,-,N/A,,Clear,0,2013-05-08 13:55:00
9:15 AM,71.6,51.8,50,30.03,10.0,Calm,Calm,-,N/A,,Clear,0,2013-05-08 14:15:00
9:35 AM,73.4,50.0,44,30.03,10.0,Calm,Calm,-,N/A,,Clear,0,2013-05-08 14:35:00
9:55 AM,75.2,50.0,41,30.03,10.0,Calm,Calm,-,N/A,,Clear,0,2013-05-08 14:55:00
10:15 AM,75.2,46.4,36,30.03,10.0,Calm,Calm,-,N/A,,Clear,0,2013-05-08 15:15:00
10:35 AM,77.0,42.8,29,30.03,10.0,WSW,3.5,-,N/A,,Clear,240,2013-05-08 15:35:00
10:55 AM,78.8,39.2,24,30.03,10.0,WSW,4.6,-,N/A,,Clear,240,2013-05-08 15:55:00
11:15 AM,78.8,44.6,30,30.03,10.0,WSW,6.9,-,N/A,,Clear,240,2013-05-08 16:15:00
11:35 AM,78.8,42.8,28,30.03,10.0,SSE,5.8,-,N/A,,Clear,160,2013-05-08 16:35:00
11:55 AM,78.8,39.2,24,30.03,10.0,South,6.9,-,N/A,,Clear,180,2013-05-08 16:55:00
12:15 PM,78.8,39.2,24,30.02,10.0,South,9.2,-,N/A,,Clear,190,2013-05-08 17:15:00
12:35 PM,80.6,41.0,24,30.01,10.0,South,6.9,-,N/A,,Clear,180,2013-05-08 17:35:00
12:55 PM,78.8,39.2,24,30.01,10.0,SSE,5.8,-,N/A,,Clear,160,2013-05-08 17:55:00
1:15 PM,80.6,41.0,24,30.01,10.0,SSW,5.8,-,N/A,,Clear,200,2013-05-08 18:15:00
1:35 PM,78.8,39.2,24,30.00,10.0,South,10.4,-,N/A,,Scattered Clouds,170,2013-05-08 18:35:00
1:55 PM,80.6,44.6,28,30.00,10.0,SSW,9.2,-,N/A,,Scattered Clouds,200,2013-05-08 18:55:00
2:15 PM,80.6,41.0,24,29.99,10.0,SSW,8.1,-,N/A,,Scattered Clouds,210,2013-05-08 19:15:00
2:35 PM,80.6,39.2,23,29.99,10.0,SSW,6.9,-,N/A,,Scattered Clouds,210,2013-05-08 19:35:00
2:55 PM,78.8,42.8,28,29.99,10.0,SSW,8.1,-,N/A,,Scattered Clouds,210,2013-05-08 19:55:00
3:35 PM,78.8,50.0,36,29.98,10.0,SW,5.8,-,N/A,,Mostly Cloudy,230,2013-05-08 20:35:00
3:55 PM,77.0,50.0,39,29.98,10.0,SSW,8.1,-,N/A,,Overcast,210,2013-05-08 20:55:00
4:15 PM,77.0,50.0,39,29.97,10.0,SSW,3.5,-,N/A,,Overcast,210,2013-05-08 21:15:00
4:35 PM,77.0,50.0,39,29.97,10.0,WSW,4.6,-,N/A,,Scattered Clouds,240,2013-05-08 21:35:00
4:55 PM,75.2,53.6,47,29.97,10.0,West,5.8,-,N/A,,Clear,270,2013-05-08 21:55:00
5:15 PM,75.2,55.4,50,29.97,10.0,West,3.5,-,N/A,,Clear,270,2013-05-08 22:15:00
5:35 PM,75.2,53.6,47,29.97,10.0,West,4.6,-,N/A,,Scattered Clouds,270,2013-05-08 22:35:00
5:55 PM,73.4,53.6,50,29.97,10.0,SW,6.9,-,N/A,,Overcast,230,2013-05-08 22:55:00
6:15 PM,75.2,53.6,47,29.97,10.0,Calm,Calm,-,N/A,,Mostly Cloudy,0,2013-05-08 23:15:00
6:35 PM,75.2,53.6,47,29.97,10.0,Calm,Calm,-,N/A,,Mostly Cloudy,0,2013-05-08 23:35:00
6:55 PM,75.2,55.4,50,29.97,10.0,Calm,Calm,-,N/A,,Overcast,0,2013-05-08 23:55:00
7:15 PM,73.4,51.8,47,29.97,10.0,SSW,8.1,-,N/A,,Overcast,210,2013-05-09 00:15:00
7:35 PM,73.4,51.8,47,29.97,10.0,SSW,5.8,-,N/A,,Scattered Clouds,200,2013-05-09 00:35:00
7:55 PM,71.6,53.6,53,29.98,10.0,South,5.8,-,N/A,,Clear,190,2013-05-09 00:55:00
8:15 PM,71.6,53.6,53,29.98,10.0,South,4.6,-,N/A,,Clear,180,2013-05-09 01:15:00
8:35 PM,71.6,53.6,53,29.98,10.0,SSE,5.8,-,N/A,,Scattered Clouds,160,2013-05-09 01:35:00
8:55 PM,69.8,53.6,56,29.98,10.0,SSE,4.6,-,N/A,,Clear,150,2013-05-09 01:55:00
9:15 PM,69.8,55.4,60,29.98,10.0,South,4.6,-,N/A,,Clear,170,2013-05-09 02:15:00
9:35 PM,69.8,53.6,56,29.98,10.0,South,4.6,-,N/A,,Clear,170,2013-05-09 02:35:00
10:15 PM,68.0,53.6,60,29.97,10.0,SSE,4.6,-,N/A,,Clear,150,2013-05-09 03:15:00
10:35 PM,66.2,53.6,64,29.97,10.0,SE,3.5,-,N/A,,Clear,130,2013-05-09 03:35:00
11:35 PM,62.6,51.8,68,29.97,10.0,SE,3.5,-,N/A,,Scattered Clouds,140,2013-05-09 04:35:00
11:55 PM,64.4,53.6,68,29.96,10.0,SSE,3.5,-,N/A,,Clear,150,2013-05-09 04:55:00